Weather in Ozernyy

Russia / Smolensk Oblast     55°34′42″N   32°24′36″E
temp.,
°C
wind,
m/s
gust,
m/s
humid.,
%
clouds,
%
prec.,
mm/h
press.,
hPa
HPBL,
m
14 april, wed
wed1400:00+11ssw249792 0.8 1018110
03:00+10s249749 0.8 1017116
06:00+9ssw2697100 0.0 1017199
09:00+10s259499 0.0 1018244
12:00+12ssw257982 0.0 1017606
15:00+15sw236082 0.3 10161214
18:00+13nnw2374100 0.6 1017226
21:00+10n389098 1.1 1018350
15 april, thu
thu1500:00+8n3894100 0.6 1018377
03:00+8nne3895100 0.7 1018398
06:00+8nne3895100 0.3 1018430
09:00+8ne4993100 0.7 1018406
12:00+10ene5883100 0.0 1018739
15:00+12ne5773100 0.1 10171110
18:00+9ne61184100 0.3 1018628
21:00+8ne51387100 0.4 1019658
16 april, fri
fri1600:00+7ene5148897 0.0 1019647
03:00+6ne51390100 0.0 1019681
06:00+6ene51291100 0.0 1019634
09:00+6ene51289100 0.1 1020589
12:00+8ene5108298 0.0 1021655
15:00+12ene51072100 0.0 10201164
18:00+12ene51172100 0.0 10201261
21:00+10ene61375100 0.0 1022958
17 april, sat
sat1700:00+9ene51275100 0.0 1023712
03:00+7ene41178100 0.0 1023587
06:00+6ene41182100 0.0 1024525
09:00+7ene5107484 0.0 1025559
12:00+10ene576876 0.0 1026758
15:00+13ene585868 0.0 10261167
18:00+13ene595845 0.0 10251255
21:00+9ene4116280 0.0 1027514
18 april, sun
sun1800:00+7ene4126177 0.0 1027411
03:00+5ene3116888 0.0 1028376
06:00+4ene3117467 0.0 1028343
09:00+8e49575 0.0 1028524
12:00+12e464767 0.0 1028944
15:00+14e464535 0.0 10281403
18:00+12se355699 0.0 1028641
21:00+8ese227216 0.0 102925